Tracking 19706 objects as of 16-Jun-2019
HD Live streaming from Space Station
objects crossing your sky now

FLOCK 2K 45

Track FLOCK 2K 45 now!
10-day predictions
FLOCK 2K 45 is classified as:


NORAD ID: 42856
Int'l Code: 2017-042AH
Perigee: 450.6 km
Apogee: 461.3 km
Inclination: 96.9 °
Period: 93.6 minutes
Semi major axis: 6826 km
RCS: Unknown
Launch date: July 14, 2017
Source: United States (US)
Launch site: TYURATAM MISSILE AND SPACE COMPLEX (TTMTR)
aabbcc
Your satellite tracking list
Your tracking list is empty




NASA's NSSDC Master Catalog

Two Line Element Set (TLE):
1 42856U 17042AH  19166.62549906  .00002762  00000-0  73218-4 0  9995
2 42856  96.9407  49.4420 0007830 225.8624 134.1979 15.39099480107495
Source of the keplerian elements: AFSPC